Regional Weather Roundup
Issued by NWS

Home | Current Version | Previous Version | Text Only | Print | Product List | Glossary On
Versions: 1 2 3 4 5 6 7 8 9 10 11 12 13 14 15 16 17 18 19 20 21 22 23 24 25 26 27 28
000
ASUS45 KCYS 201110
RWRWY

WYOMING REGIONAL WEATHER ROUNDUP
NATIONAL WEATHER SERVICE CHEYENNE WY
500 AM MDT SUN APR 20 2014

NOTE:  "FAIR" INDICATES FEW OR NO CLOUDS BELOW 12,000 FEET
WITH NO SIGNIFICANT WEATHER AND/OR OBSTRUCTIONS TO VISIBILITY.

WYZ001-201200-
YELLOWSTONE NATIONAL PARK

CITY           SKY/WX    TMP DP  RH WIND       PRES   REMARKS
LK YELLOWSTONE   N/A     24  20  84 VRB3      30.10S
W YELLOWSTONE  NOT AVBL

$$
WYZ002>013-054>058-071-098>099-201200-
NORTHERN WYOMING

CITY           SKY/WX    TMP DP  RH WIND       PRES   REMARKS
JACKSON          N/A     32  28  86 E6        30.07S WCI  26
CODY           MOCLDY    45  25  45 NE3       29.94S
GREYBULL       PTCLDY    40  31  70 S3        29.93F
WORLAND        CLEAR     36  29  75 CALM      29.95R
SHERIDAN         N/A     43  32  65 CALM        N/A
BUFFALO        CLEAR     42  24  49 W10       29.95R
GILLETTE       CLEAR     41  33  73 SE9       29.92S
HULETT         FAIR      46  32  57 CALM      29.93
NEWCASTLE      FAIR      41  32  70 W3        29.95

$$
WYZ014>020-022>026-101>103-201200-
CENTRAL WYOMING

CITY           SKY/WX    TMP DP  RH WIND       PRES   REMARKS
BIG PINEY      CLEAR     24  19  81 NE3       30.12S
PINEDALE       MOSUNNY   28  27  93 NW7       30.13S WCI  21
DUBOIS         FAIR      36  23  60 NW3       30.05S
LANDER         CLEAR     43  26  51 W7        30.00S
RIVERTON       CLEAR     41  19  41 CALM      30.01S
CASPER         CLEAR     41  33  73 SW9       30.00R
DOUGLAS        CLEAR     38  34  85 CALM      29.99S

$$
WYZ021-027>030-104>119-201200-
SOUTHERN WYOMING

CITY           SKY/WX    TMP DP  RH WIND       PRES   REMARKS
EVANSTON       PTCLDY    41  30  65 SW7       30.14R
KEMMERER       MOSUNNY   36  28  75 CALM      30.14S
FORT BRIDGER   FAIR      42  28  58 W8        30.16R
ROCK SPRINGS   CLEAR     41  28  60 SW8       30.12R
DIXON          FAIR      34  31  91 SE3       30.16R
RAWLINS        CLEAR     44  33  65 W12       30.10R
SARATOGA       FAIR      32  30  93 S5        30.13S WCI  27
LARAMIE        PTCLDY    34  31  88 SE7       30.11R WCI  28
CHEYENNE       CLEAR     39  33  79 W7        30.05S WCI  34
TORRINGTON     CLEAR     41  35  79 E8        29.97S
PINE BLUFFS    FAIR      39  37  93 SW5       30.03F

$$



USA.gov is the U.S. government's official web portal to all federal, state and local government web resources and services.